Regional Weather Roundup
Issued by NWS

Home | Current Version | Previous Version | Graphics & Text | Print | Product List | Glossary On
Versions: 1 2 3 4 5 6 7 8 9 10 11 12 13 14 15 16 17 18 19 20 21 22 23 24 25 26 27 28 29 30 31 32 33 34 35 36 37 38 39 40 41 42 43 44 45 46 47 48 49 50
000
ASUS43 KMKX 170200
RWRWI

WISCONSIN REGIONAL WEATHER ROUNDUP
NATIONAL WEATHER SERVICE MILWAUKEE/SULLIVAN WI
800 PM CST MON JAN 16 2017

NOTE: "FAIR" INDICATES FEW OR NO CLOUDS BELOW 12,000 FEET WITH NO
SIGNIFICANT WEATHER AND/OR OBSTRUCTIONS TO VISIBILITY.

WIZ001-002-006>008-014>016-023>028-170300-
NORTHWEST WISCONSIN

CITY           SKY/WX    TMP DP  RH WIND       PRES   REMARKS
SUPERIOR ARPT  CLOUDY    22  18  83 NW3       30.06F
ASHLAND        CLOUDY    29  22  75 CALM      30.06F
HAYWARD        CLOUDY    26  18  71 NE5       30.03F WCI  20
SIREN          PTCLDY    26  19  76 CALM      30.04F
CUMBERLAND     MOCLDY    27  18  69 E3        30.01F
RICE LAKE      CLOUDY    26  21  80 CALM      30.04F
CHETEK         CLOUDY    28  20  71 E5        30.03F WCI  23
LADYSMITH      MOCLDY    30  20  67 NE3       30.05F
EAU CLAIRE     NOT AVBL
MENOMONIE      LGT RAIN  32  28  88 NE5       30.01F WCI  27
NEW RICHMOND   MIX PCPN  30  25  79 E6        30.01F WCI  24
OSCEOLA        MOCLDY    28  20  70 CALM      30.04F
$$

WIZ003>005-009-010-017-018-170300-
NORTH CENTRAL WISCONSIN

CITY           SKY/WX    TMP DP  RH WIND       PRES   REMARKS
MANITOWISH WTR CLOUDY    20  18  92 CALM      30.04F
ARBOR VITAE    CLOUDY    25  20  84 CALM      30.04F
WOODRUFF       CLOUDY    25  20  84 CALM      30.04F
RHINELANDER    CLOUDY    25  20  81 CALM      30.04F
EAGLE RIVER    CLOUDY    25  20  80 CALM      30.04F
LAND O LAKES   CLOUDY    23  20  87 CALM      30.07F
PHILLIPS       CLOUDY    27  20  73 CALM      30.02F
TOMAHAWK       CLOUDY    26  20  78 CALM      30.04F
MEDFORD        MIX PCPN  30  26  84 E7        30.01F WCI  23
MERRILL        MIX PCPN  29  23  78 CALM        N/A
$$

WIZ029-030-035-036-043>047-170300-
CENTRAL WISCONSIN

CITY           SKY/WX    TMP DP  RH WIND       PRES   REMARKS
WAUSAU         FRZ RAIN  29  24  82 E7        30.03F WCI  22
MOSINEE        NOT AVBL
MARSHFIELD     FRZ RAIN  31  29  92 E10       29.99F FOG     WCI  22
STEVENS POINT  MIX PCPN  29  29 100 E8        30.04F WCI  21
WAUPACA        LGT RAIN  33  31  91 CALM      30.05F
WAUTOMA        FRZ RAIN  32  31  96 NE9       30.02F FOG     WCI  24
WISC RAPIDS    FRZ RAIN  31  31 100 E8        30.01F FOG     WCI  23
CAMP DOUGLAS   CLOUDY    32  32 100 E5        29.99F WCI  27
$$

WIZ011>013-019>022-031-037>040-048>050-170300-
NORTHEAST WISCONSIN

CITY           SKY/WX    TMP DP  RH WIND       PRES   REMARKS
ANTIGO         MIX PCPN  29  18  62 SE6       30.05F WCI  23
SHAWANO        LGT RAIN  32  25  77 NE5       30.09F WCI  27
OCONTO         CLOUDY    30  21  69 CALM      30.11S
STURGEON BAY   MIX PCPN  31  26  82 SE5       30.10F WCI  26
GREEN BAY      FRZ RAIN  33  31  92 NE7       30.08F FOG     WCI  27
MANITOWOC      LGT RAIN  34  30  86 MISG      30.09F
APPLETON       FRZ RAIN  30  30 100 NE6       30.03F WCI  24
CLINTONVILLE   LGT SNOW  32  30  93 E3        30.07F
OSHKOSH        RAIN      33  31  92 E7        30.03F FOG     WCI  27
$$

WIZ032>034-041-042-053>061-170300-
SOUTHWEST WISCONSIN

CITY           SKY/WX    TMP DP  RH WIND       PRES   REMARKS
LA CROSSE      LGT RAIN  37  32  82 NE6       29.97F WCI  32
SPARTA         MIX PCPN  32  32  99 E7        29.99F WCI  26
VIROQUA        CLOUDY    32  32 100 E6        29.94F WCI  27
BOSCOBEL       CLOUDY    34  32  92 NE5       29.96F FOG     WCI  30
PRAIRIE DU CHI CLOUDY    33  32  96 E3        29.94F FOG
PLATTEVILLE    CLOUDY    34  34 100 E13       29.93F WCI  25
$$

WIZ056-057-062-063-064-067-068-170300-
SOUTH CENTRAL WISCONSIN

CITY           SKY/WX    TMP DP  RH WIND       PRES   REMARKS
REEDSBURG      DRIZZLE   32  32 100 E5        29.97F WCI  27
BARABOO/DELLS  MIX PCPN  32  32 100 E9        29.98F WCI  24
LONE ROCK      NOT AVBL
MINERAL POINT  CLOUDY    34  34 100 E12       29.92F FOG     WCI  25
MADISON        LGT RAIN  33  32  96 E10       29.97S FOG     WCI  25
MIDDLETON      CLOUDY    34  34 100 E7        29.98S WCI  28
WATERTOWN      MIX PCPN  34  34 100 E13G20    29.97F WCI  25
MONROE         FOG       32  32 100 NE8       29.93F VSB 1/2 WCI  25
JANESVILLE     CLOUDY    36  36 100 E10       29.96R WCI  28
$$

WIZ051-052-058>065-066-070>072-170300-
SOUTHEAST WISCONSIN

CITY           SKY/WX    TMP DP  RH WIND       PRES   REMARKS
MILWAUKEE      RAIN      37  35  92 E10       30.03F FOG     WCI  30
WAUKESHA       NOT AVBL
MILWAUKEE/TIMM LGT RAIN  36  32  87 E8        30.04S FOG     WCI  29
RACINE         LGT RAIN  36  35  96 E7        30.03F FOG     WCI  30
KENOSHA        RAIN      36  35  96 E10       30.00F FOG     WCI  28
FOND DU LAC    RAIN      35  31  85 MISG      30.01F
SHEBOYGAN      LGT RAIN  34  33  96 E9        30.04F FOG     WCI  27
WEST BEND      LGT RAIN  34  34 100 E8        30.03S WCI  27
JUNEAU         RAIN      33  32  96 E10       30.01F WCI  25
$$

LSZ147-162-170300-
LAKE SUPERIOR

STATION/POSITION TIME  TEMP    WIND        PRES    WAVE
                       AIR SEA DIR/SP/G            HT/PER
                 (UTC) (F)     (DEG/KT/KT) (MB)    (FT/S)
DEVILS ISLAND    0100   32      20/  2/  2 1019.4F
PORT WING        0140   23     140/  2/  3 1017.9F
SAXON HARBOR     0140   27     200/  5/  6 1017.6F
$$

LMZ867-665-643>646-170300-
LAKE MICHIGAN

STATION/POSITION TIME  TEMP    WIND        PRES    WAVE
                       AIR SEA DIR/SP/G            HT/PER
                 (UTC) (F)     (DEG/KT/KT) (MB)    (FT/S)
NORTHPORT PIER   0140   29      CALM  /  4 1020.0F
SISTER BAY       0105   31        CALM       N/A
ALGOMA LAKESHORE 0123          130/  8/  9   N/A
KEWAUNEE LAKESHO 0130   34     110/  6/  8 1018.9F
SHEBOYGAN LAKESH 0100   35      90/ 11/ 12 1019.2F
PORT WASHINGTON  0140   36     110/ 10/ 14 1018.6F
MILWAUKEE LAKESH 0130   35      90/ 10/ 12   N/A
KENOSHA   LAKESH 0100   35     100/ 10/ 11 1016.6
$$

TC  - TEMPERATURE IN CELSIUS
VSB - VISIBILITY IN STATUTE MILES
WCI - WIND CHILL INDEX
HX  - HEAT INDEX




USA.gov is the U.S. government's official web portal to all federal, state and local government web resources and services.